Regional Weather Roundup
Issued by NWS Huntsville, AL

Home | Current Version | Previous Version | Text Only | Print | Product List | Glossary On
Versions: 1 2 3 4 5 6 7 8 9 10 11 12 13 14 15 16 17 18 19 20 21 22 23 24 25 26 27 28 29 30 31 32 33 34 35 36 37 38 39 40 41 42 43 44 45 46 47 48 49 50
000
ASUS44 KHUN 301610
RWRHUN

WEATHER ROUNDUP FOR THE TENNESSEE VALLEY
NATIONAL WEATHER SERVICE HUNTSVILLE AL
1100 AM CDT FRI SEP 30 2016

ALZ001>004-301700-
NORTHWEST ALABAMA

CITY           SKY/WX    TMP DP  RH WIND       PRES   REMARKS
COURTLAND HCN    N/A     57 N/A N/A W6          N/A
RUSSELLVILLE     N/A     59 N/A N/A MISG        N/A
SHOALS AIRPORT CLOUDY    63  53  70 NW5       30.13S
$$

ALZ005>007-016-301700-
NORTH CENTRAL ALABAMA

CITY           SKY/WX    TMP DP  RH WIND       PRES   REMARKS
CULLMAN AG STN   N/A     61 N/A N/A CALM        N/A
DECATUR AP     CLOUDY    58  56  93 W9        30.13R
HUNTSVILLE AP  PTSUNNY   64  54  69 W6        30.11S
MERIDIANVILLE  CLOUDY    59  50  72 CALM      30.11F
REDSTONE ARSN  PTSUNNY   61  54  78 VRB3      30.10F
VINEMONT AP    CLOUDY    61  52  73 NW3       30.13F
$$

ALZ008>010-301700-
NORTHEAST ALABAMA

CITY           SKY/WX    TMP DP  RH WIND       PRES   REMARKS
ALBERTVILLE    MOSUNNY   64  55  72 NW7       30.10S
FORT PAYNE     SUNNY     61  46  59 CALM      30.09S
SCOTTSBORO AP  PTSUNNY   64  50  59 SW5       30.10S
SCOTTSBORO HCN   N/A     64 N/A N/A MISG        N/A
VALLEY HEAD      N/A     59 N/A N/A MISG        N/A
$$

TNZ076-096-097-301700-
SOUTHEASTERN MIDDLE TENNESSEE

CITY           SKY/WX    TMP DP  RH WIND       PRES   REMARKS
TULLAHOMA      CLOUDY    57  54  88 W8        30.10F
WINCHESTER     PTSUNNY   63  52  67 W3        30.09F
$$

...SURROUNDING SITES...

CITY           SKY/WX    TMP DP  RH WIND       PRES   REMARKS
ATLANTA        MOSUNNY   68  50  52 VRB7      30.07S
ANNISTON       MOSUNNY   67  47  48 VRB5      30.10F
BIRMINGHAM     MOSUNNY   67  52  58 NW8       30.13F
CHATTANOOGA    MOSUNNY   65  48  54 CALM      30.08S
CORINTH        PTSUNNY   64  52  63 VRB3G12   30.12S
DALTON         MOSUNNY   63  52  67 N3        30.08F
GADSDEN        SUNNY     68  51  54 NW6       30.10F
GOLDEN TRNGL   MOSUNNY   70  52  52 W9        30.12F
HALEYVILLE     PTSUNNY   62  54  74 NW3       30.14F
JACKSON TN       N/A    N/A N/A N/A MISG      30.13R
MEMPHIS        PTSUNNY   70  55  60 N6        30.13R
NASHVILLE      CLOUDY    62  54  74 SW8       30.08S
OXFORD MS      FAIR      68  54  60 W9        30.14S
ROME           SUNNY     67  47  48 CALM      30.08S
SAVANNAH       CLOUDY    61  55  82 N7        30.12R
TUPELO         SUNNY     71  51  49 MISG      30.11S
TUSCALOOSA     MOSUNNY   71  52  50 CALM      30.12S
$$

...GULF COAST WEATHER...

CITY           SKY/WX    TMP DP  RH WIND       PRES   REMARKS
GULFPORT       SUNNY     75  54  47 NE5       30.13S
PASCAGOULA     SUNNY     75  55  49 VRB3      30.13S
MOBILE         SUNNY     74  54  49 VRB5      30.13F
GULF SHORES    SUNNY     74  56  52 N6        30.11F
PENSACOLA      SUNNY     77  54  44 VRB5      30.10F
DESTIN         SUNNY     77  54  44 NE6       30.10F
PANAMA CITY    SUNNY     76  52  42 NE10      30.08F
APPALACHICOLA  SUNNY     79  56  45 NE7       30.07S
$$




USA.gov is the U.S. government's official web portal to all federal, state and local government web resources and services.